Location: Bismarck
(46.7731°N, 100.8200°W)
Time: 02:42:47
(UTC-06:00)

Amateur Radio Satellites - All Passes

Search period start: 20 December 2014 02:12
Search period end: 21 December 2014 02:12
Location: Bismarck, 46.7731°N, 100.8200°W

Satellite Date Start Highest point End Downlink Frequencies (MHz)
Time Altitude Azimuth
BEESAT 20 Dec 02:25:31 02:29:19 23° 267° (W) 02:33:08 436.000
M-CUBED/EXP-1 PRIME 20 Dec 02:31:58 02:36:03 27° 261° (W) 02:40:13 437.505
Oscar 19 20 Dec 02:52:20 02:57:29 63° 289° (WNW) 03:02:36 437.125/150
Gurwin Techsat 1B 20 Dec 02:57:10 03:02:07 39° 97° (E) 03:07:03 435.225
AIST 1 20 Dec 02:58:28 03:01:03 15° 66° (ENE) 03:03:36
ITAMSAT 1 20 Dec 03:06:19 03:11:30 71° 103° (ESE) 03:16:39 435.822/435.867
MOZHAYETS 4 20 Dec 03:10:24 03:12:12 12° 57° (ENE) 03:14:00
HORYU 2 20 Dec 03:22:47 03:26:34 25° 94° (E) 03:30:19 437.375
O/OREOS (USA 219) 20 Dec 03:25:22 03:27:58 15° 314° (NW) 03:30:35 437.305
STARS 20 Dec 03:38:49 03:42:24 24° 266° (W) 03:46:00 437.465
KKS-1 20 Dec 03:41:55 03:44:46 17° 269° (W) 03:47:37 437.445
YUBILEINY 20 Dec 03:45:53 03:49:15 12° 313° (NW) 03:52:38 435.215
AO-7 20 Dec 03:50:59 03:57:41 26° 92° (E) 04:04:20 29.400- 29.500
SO-50 20 Dec 03:55:37 03:58:10 14° 23° (NNE) 04:00:44 436.795
VERMONT LUNAR 20 Dec 04:24:15 04:26:42 18° 160° (SSE) 04:29:10 437.305
JAS-2 20 Dec 04:27:55 04:30:33 13° 84° (E) 04:33:05 435.910
Oscar 19 20 Dec 04:34:37 04:35:49 11° 308° (NW) 04:37:01 437.125/150
AIST 1 20 Dec 04:34:54 04:39:07 56° 265° (W) 04:43:17
PHONESAT 2.4 20 Dec 04:35:05 04:37:24 16° 158° (SSE) 04:39:43 2401.200-2431.200
Gurwin Techsat 1B 20 Dec 04:37:18 04:42:00 33° 295° (WNW) 04:46:41 435.225
MOZHAYETS 4 20 Dec 04:44:01 04:48:40 84° 75° (ENE) 04:53:22
ITAMSAT 1 20 Dec 04:46:55 04:50:27 19° 302° (WNW) 04:53:59 435.822/435.867
HORYU 2 20 Dec 04:59:09 05:03:20 38° 292° (WNW) 05:07:29 437.375
SO-50 20 Dec 05:35:15 05:39:56 45° 45° (NE) 05:44:38 436.795
GONETS M04 20 Dec 05:39:46 05:48:01 46° 87° (E) 05:56:16
PRISM 20 Dec 05:42:26 05:46:36 57° 72° (ENE) 05:50:46 437.425
AO-7 20 Dec 05:42:55 05:51:18 79° 292° (WNW) 05:59:39 29.400- 29.500
Cubesat XI-IV 20 Dec 05:57:36 06:01:12 18° 90° (E) 06:04:47 437.490
STRAND 1 20 Dec 06:01:10 06:05:57 42° 67° (ENE) 06:10:44 437.568
VERMONT LUNAR 20 Dec 06:01:21 06:04:28 29° 177° (S) 06:07:34 437.305
CUBESAT XI-V 20 Dec 06:05:32 06:10:01 47° 70° (ENE) 06:14:29 437.345
JAS-2 20 Dec 06:10:51 06:16:42 87° 286° (WNW) 06:21:59 435.910
PHONESAT 2.4 20 Dec 06:12:18 06:15:29 29° 175° (S) 06:18:40 2401.200-2431.200
MOZHAYETS 4 20 Dec 06:24:47 06:26:31 12° 273° (W) 06:28:16
CUTE-I 20 Dec 06:30:13 06:35:02 34° 96° (E) 06:39:49 437.470
SO-50 20 Dec 07:16:04 07:20:22 32° 244° (WSW) 07:24:41 436.795
PRISM 20 Dec 07:20:01 07:22:29 15° 269° (W) 07:24:58 437.425
GONETS M04 20 Dec 07:36:29 07:44:52 46° 289° (WNW) 07:53:18
Cubesat XI-IV 20 Dec 07:36:31 07:41:48 68° 288° (WNW) 07:47:04 437.490
AO-7 20 Dec 07:36:50 07:42:53 23° 314° (NW) 07:48:56 29.400- 29.500
VERMONT LUNAR 20 Dec 07:39:27 07:42:17 23° 194° (SSW) 07:45:06 437.305
STRAND 1 20 Dec 07:40:54 07:45:16 28° 265° (W) 07:49:39 437.568
CUBESAT XI-V 20 Dec 07:44:07 07:47:41 21° 268° (W) 07:51:15 437.345
PHONESAT 2.4 20 Dec 07:50:38 07:53:41 25° 192° (SSW) 07:56:43 2401.200-2431.200
HO-68 20 Dec 07:55:44 07:57:51 11° 83° (E) 07:59:58 435.675
JAS-2 20 Dec 07:57:34 08:00:49 16° 308° (NW) 08:03:54 435.910
CUTE-I 20 Dec 08:10:16 08:15:07 37° 294° (WNW) 08:19:58 437.470
BRITE-PL 20 Dec 08:21:17 08:23:36 13° 89° (E) 08:25:59 437.365/2234.400
SEEDS 20 Dec 08:38:33 08:40:39 13° 89° (E) 08:42:44 437.485
CUTE 1.7 + AOD 2 20 Dec 08:40:50 08:43:35 16° 90° (E) 08:46:19 437.475
GOMX 1 20 Dec 08:49:32 08:52:53 19° 92° (E) 08:56:22 467.674
TIGRISAT 20 Dec 08:50:53 08:51:25 10° 55° (NE) 08:51:58 435.000
MaSat-1 20 Dec 09:04:23 09:05:54 16° 111° (ESE) 09:07:23 437.345
Oscar 11 20 Dec 09:16:10 09:18:12 13° 88° (E) 09:20:13 145.826/435.025
DOVE 4 20 Dec 09:16:37 09:20:34 25° 94° (E) 09:24:40 437.250
UNISAT 6 20 Dec 09:16:57 09:19:59 19° 61° (ENE) 09:23:05 437.425
Cubesat XI-IV 20 Dec 09:19:00 09:20:56 12° 308° (NW) 09:22:53 437.490
DUCHIFAT 1 20 Dec 09:23:25 09:25:29 14° 59° (ENE) 09:27:34 145.980
UKube-1 20 Dec 09:25:08 09:26:23 11° 88° (E) 09:27:38 .
BUGSAT 1 20 Dec 09:25:31 09:26:42 11° 58° (ENE) 09:27:52 437.445
PHONESAT 2.4 20 Dec 09:30:41 09:31:38 11° 208° (SSW) 09:32:36 2401.200-2431.200
CUBEBUG 2 20 Dec 09:32:33 09:35:00 14° 89° (E) 09:37:28 437.445
AAUSAT CUBESAT 2 20 Dec 09:32:47 09:36:43 35° 97° (E) 09:40:36 437.432
DANDE 20 Dec 09:35:07 09:37:51 19° 83° (E) 09:41:09 436.750
QB50P2 20 Dec 09:35:43 09:38:35 18° 62° (ENE) 09:41:28 145.880/145.840
HO-68 20 Dec 09:39:52 09:46:59 64° 103° (ESE) 09:54:03 435.675
GONETS M04 20 Dec 09:42:42 09:44:36 11° 316° (NW) 09:46:31
POLYITAN 1 20 Dec 09:44:00 09:47:12 22° 64° (ENE) 09:50:25 437.675
CANX-2 20 Dec 09:44:36 09:48:58 80° 103° (ESE) 09:53:17 2200.000
CINEMA 3 20 Dec 09:45:08 09:49:15 29° 95° (E) 09:53:30 145.822/145.860
ZACube-1 20 Dec 09:45:13 09:47:26 13° 88° (E) 09:49:39 437.345
NANOSAT C BR1 20 Dec 09:46:31 09:49:47 22° 64° (ENE) 09:53:04 145.865
ANTELSAT 20 Dec 09:47:39 09:51:37 35° 67° (ENE) 09:55:43 437.575/2403.000
YUBILEINY 20 Dec 09:51:35 09:58:13 23° 59° (ENE) 10:04:48 435.215
BRITE-PL 20 Dec 09:57:56 10:02:34 78° 285° (WNW) 10:07:34 437.365/2234.400
QB50P1 20 Dec 10:00:21 10:04:02 30° 67° (ENE) 10:07:44 145.935-145.965
COMPASS 1 20 Dec 10:07:37 10:11:55 87° 284° (WNW) 10:16:10 437.405
UWE-3 20 Dec 10:10:28 10:14:25 28° 95° (E) 10:18:24 435.000/436.395/437.385
FUNcube-1 20 Dec 10:10:57 10:14:37 24° 93° (E) 10:18:18 145.935
O/OREOS (USA 219) 20 Dec 10:11:32 10:15:38 33° 56° (NE) 10:19:44 437.305
SEEDS 20 Dec 10:12:39 10:16:56 66° 286° (WNW) 10:21:11 437.485
CUTE 1.7 + AOD 2 20 Dec 10:15:37 10:19:51 54° 288° (WNW) 10:24:03 437.475
TIGRISAT 20 Dec 10:22:59 10:27:19 75° 74° (ENE) 10:31:49 435.000
DELFI C3 20 Dec 10:26:36 10:30:41 56° 100° (E) 10:34:43 145.870
GOMX 1 20 Dec 10:26:42 10:31:18 57° 287° (WNW) 10:36:12 467.674
CUSAT 1 20 Dec 10:26:44 10:30:29 87° 100° (E) 10:35:37 437.405
DX 1 20 Dec 10:27:18 10:31:33 49° 100° (E) 10:35:46 434.975-435.025
AISAT 20 Dec 10:27:48 10:31:00 19° 92° (E) 10:34:11 437.250
POPSAT HIP 1 20 Dec 10:28:27 10:32:35 58° 72° (ENE) 10:36:44 437.405
50 SAT 20 Dec 10:29:16 10:31:56 17° 91° (E) 10:34:36 437.505
MaSat-1 20 Dec 10:37:47 10:39:09 14° 308° (NW) 10:40:31 437.345
HUMSAT D 20 Dec 10:47:34 10:51:28 32° 96° (E) 10:55:22 437.325/437.525
Oscar 11 20 Dec 10:50:30 10:54:52 70° 286° (WNW) 10:59:12 145.826/435.025
UNISAT 6 20 Dec 10:52:04 10:56:22 55° 260° (W) 11:00:48 437.425
DOVE 4 20 Dec 10:54:01 10:58:27 42° 290° (WNW) 11:03:07 437.250
DUCHIFAT 1 20 Dec 10:56:37 11:00:48 72° 257° (WSW) 11:05:02 145.980
BUGSAT 1 20 Dec 10:57:29 11:01:35 85° 256° (WSW) 11:05:40 437.445
UKube-1 20 Dec 10:58:46 11:03:07 81° 286° (WNW) 11:07:27 .
CUBEBUG 2 20 Dec 11:07:34 11:12:10 73° 286° (WNW) 11:16:52 437.445
AAUSAT CUBESAT 2 20 Dec 11:08:46 11:12:14 25° 294° (WNW) 11:15:40 437.432
QB50P2 20 Dec 11:10:03 11:14:09 51° 260° (W) 11:18:17 145.880/145.840
DANDE 20 Dec 11:17:25 11:20:51 35° 293° (WNW) 11:25:22 436.750
POLYITAN 1 20 Dec 11:18:56 11:22:54 41° 262° (W) 11:26:56 437.675
ZACube-1 20 Dec 11:19:47 11:24:17 74° 286° (WNW) 11:28:52 437.345
VELOX 1 20 Dec 11:20:28 11:24:52 62° 102° (ESE) 11:29:14 145.980
NANOSAT C BR1 20 Dec 11:21:31 11:25:27 39° 262° (W) 11:29:25 145.865
ESTCUBE 1 20 Dec 11:22:00 11:25:54 28° 95° (E) 11:29:45 437.505/2401.250
CINEMA 3 20 Dec 11:22:12 11:26:29 36° 291° (WNW) 11:30:55 145.822/145.860
CANX-2 20 Dec 11:22:18 11:24:17 13° 301° (WNW) 11:26:16 2200.000
ANTELSAT 20 Dec 11:24:47 11:28:29 27° 266° (W) 11:32:18 437.575/2403.000
HO-68 20 Dec 11:28:12 11:34:16 31° 303° (WNW) 11:40:18 435.675
QB50P1 20 Dec 11:36:17 11:39:55 28° 265° (W) 11:43:34 145.935-145.965
BRITE-PL 20 Dec 11:39:03 11:40:26 11° 302° (WNW) 11:41:50 437.365/2234.400
TISAT 1 20 Dec 11:43:48 11:45:11 11° 88° (E) 11:46:34 437.305
COMPASS 1 20 Dec 11:45:47 11:46:56 11° 302° (WNW) 11:48:06 437.405
SPROUT 20 Dec 11:45:53 11:47:24 12° 88° (E) 11:48:56 437.525
UWE-3 20 Dec 11:46:50 11:50:59 36° 292° (WNW) 11:55:13 435.000/436.395/437.385
FUNcube-1 20 Dec 11:46:52 11:51:06 41° 290° (WNW) 11:55:22 145.935
YUBILEINY 20 Dec 11:47:33 11:56:18 89° 263° (W) 12:05:01 435.215
O/OREOS (USA 219) 20 Dec 11:51:01 11:54:59 31° 255° (WSW) 11:58:57 437.305
RS-15 20 Dec 11:51:17 12:01:17 44° 110° (ESE) 12:11:17 29.354- 29.394
TIGRISAT 20 Dec 12:02:55 12:04:41 12° 273° (W) 12:06:27 435.000
DELFI C3 20 Dec 12:03:00 12:05:32 16° 298° (WNW) 12:08:03 145.870
50 SAT 20 Dec 12:03:25 12:07:27 50° 288° (WNW) 12:11:28 437.505
AISAT 20 Dec 12:03:36 12:07:53 48° 290° (WNW) 12:12:09 437.250
DX 1 20 Dec 12:04:21 12:07:27 20° 298° (WNW) 12:10:34 434.975-435.025
POPSAT HIP 1 20 Dec 12:06:30 12:08:52 15° 270° (W) 12:11:15 437.405
CUBEBUG 1 20 Dec 12:10:35 12:14:57 82° 104° (ESE) 12:19:17 437.445
CUSAT 1 20 Dec 12:13:19 12:14:55 12° 309° (NW) 12:16:40 437.405
HUMSAT D 20 Dec 12:23:29 12:27:11 28° 293° (WNW) 12:30:53 437.325/437.525
Oscar 19 20 Dec 12:33:24 12:38:05 37° 66° (ENE) 12:42:49 437.125/150
UKube-1 20 Dec 12:37:37 12:38:32 11° 304° (NW) 12:39:27 .
Gurwin Techsat 1B 20 Dec 12:44:40 12:47:14 14° 54° (NE) 12:49:49 435.225
CUBEBUG 2 20 Dec 12:47:08 12:48:05 11° 303° (WNW) 12:49:02 437.445
ITAMSAT 1 20 Dec 12:49:31 12:53:26 22° 60° (ENE) 12:57:21 435.822/435.867
VELOX 1 20 Dec 12:58:12 13:00:59 17° 300° (WNW) 13:03:46 145.980
ESTCUBE 1 20 Dec 12:58:45 13:02:48 33° 293° (WNW) 13:06:49 437.505/2401.250
ZACube-1 20 Dec 12:59:13 12:59:53 10° 304° (WNW) 13:00:32 437.345
AO-7 20 Dec 13:06:01 13:09:51 14° 36° (NE) 13:13:41 29.400- 29.500
BEESAT 3 20 Dec 13:07:15 13:09:42 16° 111° (ESE) 13:12:11 437.485
TISAT 1 20 Dec 13:17:18 13:21:32 75° 285° (WNW) 13:25:45 437.305
SPROUT 20 Dec 13:19:43 13:24:02 76° 285° (WNW) 13:28:19 437.525
BEESAT 2 20 Dec 13:45:24 13:49:05 32° 117° (ESE) 13:52:50 435.950
YUBILEINY 20 Dec 13:46:00 13:51:51 21° 284° (WNW) 13:57:42 435.215
CUBEBUG 1 20 Dec 13:48:49 13:50:42 13° 302° (WNW) 13:52:36 437.445
AUBIESAT-1 20 Dec 13:49:06 13:50:00 11° 91° (E) 13:50:53 437.475
SWISSCUBE 20 Dec 13:56:43 14:01:19 46° 99° (E) 14:05:53 437.505
ITUPSAT 1 20 Dec 13:57:07 14:01:40 43° 98° (E) 14:06:11 437.325
RS-15 20 Dec 14:02:21 14:13:10 65° 315° (NW) 14:24:11 29.354- 29.394
M-CUBED/EXP-1 PRIME 20 Dec 14:12:34 14:15:57 21° 97° (E) 14:19:07 437.505
Oscar 19 20 Dec 14:12:52 14:17:27 32° 264° (W) 14:22:06 437.125/150
PCSat 20 Dec 14:13:00 14:18:06 44° 114° (ESE) 14:23:14 145.827
Gurwin Techsat 1B 20 Dec 14:21:03 14:26:21 79° 74° (ENE) 14:31:41 435.225
BEESAT 20 Dec 14:21:41 14:26:28 75° 103° (ESE) 14:31:13 436.000
HORYU 2 20 Dec 14:24:05 14:28:06 34° 67° (ENE) 14:32:10 437.375
ISS 20 Dec 14:27:11 14:30:12 33° 143° (SE) 14:33:12 145.825
ITAMSAT 1 20 Dec 14:27:25 14:32:32 59° 259° (WSW) 14:37:39 435.822/435.867
BEESAT 3 20 Dec 14:43:18 14:47:24 65° 309° (NW) 14:51:34 437.485
JAS-2 20 Dec 14:43:35 14:47:10 15° 51° (NE) 14:50:37 435.910
AIST 2 20 Dec 14:48:54 14:53:07 66° 123° (ESE) 14:57:24 435.215
AO-7 20 Dec 14:52:48 15:00:36 47° 59° (ENE) 15:08:28 29.400- 29.500
AUBIESAT-1 20 Dec 15:21:15 15:25:42 84° 290° (WNW) 15:29:45 437.475
BEESAT 2 20 Dec 15:23:31 15:27:19 34° 316° (NW) 15:31:10 435.950
STARS 20 Dec 15:24:59 15:29:18 49° 100° (E) 15:33:37 437.465
KKS-1 20 Dec 15:28:15 15:32:45 78° 103° (ESE) 15:37:13 437.445
SWISSCUBE 20 Dec 15:35:08 15:38:55 24° 297° (WNW) 15:42:40 437.505
ITUPSAT 1 20 Dec 15:35:27 15:39:21 26° 297° (WNW) 15:43:14 437.325
GONETS M04 20 Dec 15:46:17 15:53:30 27° 62° (ENE) 16:00:38
M-CUBED/EXP-1 PRIME 20 Dec 15:46:57 15:51:13 43° 297° (WNW) 15:55:07 437.505
PCSat 20 Dec 15:56:39 16:01:38 36° 314° (NW) 16:06:38 145.827
BEESAT 20 Dec 16:00:52 16:03:45 16° 302° (WNW) 16:06:37 436.000
HORYU 2 20 Dec 16:00:58 16:04:48 28° 265° (W) 16:08:41 437.375
ISS 20 Dec 16:03:26 16:06:41 54° 341° (NNW) 16:09:56 145.825
Gurwin Techsat 1B 20 Dec 16:03:52 16:06:57 16° 272° (W) 16:10:03 435.225
RS-15 20 Dec 16:18:34 16:28:07 33° 346° (NNW) 16:37:55 29.354- 29.394
CUTE-I 20 Dec 16:18:48 16:21:03 13° 53° (NE) 16:23:18 437.470
JAS-2 20 Dec 16:23:40 16:31:05 61° 70° (ENE) 16:37:49 435.910
BEESAT 3 20 Dec 16:24:06 16:26:23 14° 330° (NNW) 16:28:42 437.485
AIST 2 20 Dec 16:28:48 16:32:09 22° 323° (NW) 16:35:33 435.215
MOZHAYETS 4 20 Dec 16:37:39 16:40:37 17° 90° (E) 16:43:34
AO-7 20 Dec 16:45:27 16:53:23 48° 260° (W) 17:01:25 29.400- 29.500
AUBIESAT-1 20 Dec 16:58:01 16:59:51 12° 311° (NW) 17:01:37 437.475
STARS 20 Dec 17:02:13 17:05:28 20° 298° (WNW) 17:08:42 437.465
KKS-1 20 Dec 17:06:29 17:08:48 14° 301° (WNW) 17:11:07 437.445
AIST 1 20 Dec 17:07:04 17:11:26 73° 97° (E) 17:15:48
Cubesat XI-IV 20 Dec 17:22:05 17:27:01 40° 66° (ENE) 17:31:57 437.490
ISS 20 Dec 17:40:38 17:43:41 33° 1° (N) 17:46:43 145.825
GONETS M04 20 Dec 17:42:33 17:51:20 78° 265° (W) 18:00:00
PCSat 20 Dec 17:44:42 17:46:43 12° 338° (NNW) 17:48:44 145.827
CUTE-I 20 Dec 17:54:55 18:00:13 73° 72° (ENE) 18:05:32 437.470
JAS-2 20 Dec 18:09:49 18:16:23 31° 266° (W) 18:22:30 435.910
STRAND 1 20 Dec 18:11:40 18:12:34 10° 86° (E) 18:13:27 437.568
MOZHAYETS 4 20 Dec 18:13:41 18:18:15 60° 288° (WNW) 18:22:47
HO-68 20 Dec 18:27:41 18:31:41 16° 46° (NE) 18:35:40 435.675
MaSat-1 20 Dec 18:31:18 18:33:40 80° 61° (ENE) 18:36:09 437.345
RS-15 20 Dec 18:34:33 18:44:30 36° 21° (NNE) 18:54:47 29.354- 29.394
AIST 1 20 Dec 18:47:38 18:49:39 13° 296° (WNW) 18:51:40
PRISM 20 Dec 18:58:11 19:02:21 64° 102° (ESE) 19:06:26 437.425
Cubesat XI-IV 20 Dec 19:02:28 19:07:11 32° 265° (W) 19:11:55 437.490
CANX-2 20 Dec 19:08:39 19:09:27 10° 57° (ENE) 19:10:15 2200.000
ISS 20 Dec 19:17:22 19:20:39 61° 21° (NNE) 19:23:53 145.825
CUSAT 1 20 Dec 19:18:35 19:24:22 23° 62° (ENE) 19:30:41 437.405
COMPASS 1 20 Dec 19:29:36 19:31:04 12° 58° (ENE) 19:32:32 437.405
SEEDS 20 Dec 19:34:07 19:36:33 15° 61° (ENE) 19:39:00 437.485
BRITE-PL 20 Dec 19:35:42 19:38:33 18° 63° (ENE) 19:41:24 437.365/2234.400
CUBESAT XI-V 20 Dec 19:36:38 19:41:16 80° 103° (ESE) 19:45:51 437.345
CUTE 1.7 + AOD 2 20 Dec 19:37:03 19:39:58 18° 62° (ENE) 19:42:55 437.475
CUTE-I 20 Dec 19:37:27 19:40:50 17° 271° (W) 19:44:15 437.470
GONETS M04 20 Dec 19:41:31 19:46:36 17° 287° (WNW) 19:51:40
STRAND 1 20 Dec 19:47:28 19:52:35 79° 104° (ESE) 19:57:41 437.568
GOMX 1 20 Dec 20:01:26 20:04:44 24° 65° (ENE) 20:08:05 467.674
DANDE 20 Dec 20:09:54 20:16:51 41° 70° (ENE) 20:24:48 436.750
HO-68 20 Dec 20:11:01 20:18:04 64° 67° (ENE) 20:25:09 435.675
Oscar 11 20 Dec 20:13:58 20:16:36 16° 61° (ENE) 20:19:15 145.826/435.025
UKube-1 20 Dec 20:22:38 20:25:14 16° 60° (ENE) 20:27:50 .
BEESAT 2 20 Dec 20:25:28 20:27:26 13° 28° (NNE) 20:29:24 435.950
DOVE 4 20 Dec 20:26:00 20:29:38 31° 67° (ENE) 20:33:22 437.250
AAUSAT CUBESAT 2 20 Dec 20:26:54 20:30:46 36° 69° (ENE) 20:34:39 437.432
CUBEBUG 2 20 Dec 20:34:28 20:37:03 16° 61° (ENE) 20:39:40 437.445
PRISM 20 Dec 20:35:04 20:37:23 15° 300° (WNW) 20:39:42 437.425
CANX-2 20 Dec 20:40:22 20:44:38 82° 75° (ENE) 20:48:58 2200.000
ZACube-1 20 Dec 20:44:48 20:47:14 15° 60° (ENE) 20:49:42 437.345
RS-15 20 Dec 20:47:42 20:58:57 77° 50° (NE) 21:10:42 29.354- 29.394
VELOX 1 20 Dec 20:48:34 20:49:40 11° 56° (NE) 20:50:46 145.980
CINEMA 3 20 Dec 20:50:27 20:54:13 33° 68° (ENE) 20:58:05 145.822/145.860
ISS 20 Dec 20:54:13 20:57:03 27° 219° (SW) 20:59:51 145.825
CUSAT 1 20 Dec 21:00:42 21:08:17 87° 79° (E) 21:16:51 437.405
COMPASS 1 20 Dec 21:01:54 21:06:07 87° 257° (WSW) 21:10:25 437.405
SEEDS 20 Dec 21:07:40 21:11:53 65° 259° (W) 21:16:09 437.485
FUNcube-1 20 Dec 21:10:14 21:13:42 26° 65° (ENE) 21:17:15 145.935
UWE-3 20 Dec 21:11:03 21:14:44 30° 67° (ENE) 21:18:30 435.000/436.395/437.385
CUTE 1.7 + AOD 2 20 Dec 21:11:22 21:15:32 52° 261° (W) 21:19:45 437.475
BRITE-PL 20 Dec 21:12:47 21:16:47 45° 261° (W) 21:20:48 437.365/2234.400
PCSat 20 Dec 21:15:10 21:18:46 18° 32° (NNE) 21:22:22 145.827
CUBESAT XI-V 20 Dec 21:15:41 21:18:05 14° 301° (WNW) 21:20:29 437.345
DELFI C3 20 Dec 21:17:50 21:21:51 53° 72° (ENE) 21:25:53 145.870
50 SAT 20 Dec 21:21:00 21:23:32 16° 62° (ENE) 21:26:05 437.505
BEESAT 3 20 Dec 21:22:41 21:26:22 29° 42° (NE) 21:30:01 437.485
DX 1 20 Dec 21:25:41 21:29:59 64° 72° (ENE) 21:34:17 434.975-435.025
STRAND 1 20 Dec 21:27:59 21:31:10 17° 303° (WNW) 21:34:20 437.568
AISAT 20 Dec 21:28:51 21:32:29 26° 65° (ENE) 21:36:08 437.250
AIST 2 20 Dec 21:30:23 21:33:36 20° 35° (NE) 21:36:48 435.215
SO-50 20 Dec 21:32:58 21:37:16 44° 119° (ESE) 21:41:44 436.795
CUBEBUG 1 20 Dec 21:36:22 21:38:15 13° 58° (ENE) 21:40:08 437.445
GOMX 1 20 Dec 21:38:58 21:42:45 34° 264° (W) 21:46:35 467.674
HUMSAT D 20 Dec 21:42:51 21:46:34 33° 68° (ENE) 21:50:20 437.325/437.525
Oscar 11 20 Dec 21:48:00 21:52:17 63° 259° (WSW) 21:56:38 145.826/435.025
DANDE 20 Dec 21:53:14 22:00:30 54° 266° (W) 22:08:49 436.750
UKube-1 20 Dec 21:56:37 22:00:55 64° 258° (WSW) 22:05:15 .
HO-68 20 Dec 22:00:13 22:06:15 29° 267° (W) 22:12:20 435.675
BEESAT 2 20 Dec 22:02:29 22:06:38 54° 49° (NE) 22:10:43 435.950
AAUSAT CUBESAT 2 20 Dec 22:03:08 22:06:31 23° 267° (W) 22:09:57 437.432
DOVE 4 20 Dec 22:04:00 22:07:28 26° 266° (W) 22:11:01 437.250
CUBEBUG 2 20 Dec 22:09:09 22:13:17 59° 259° (W) 22:17:33 437.445
TIGRISAT 20 Dec 22:13:25 22:15:54 14° 89° (E) 22:18:23 435.000
ZACube-1 20 Dec 22:18:57 22:23:06 63° 259° (W) 22:27:23 437.345
CANX-2 20 Dec 22:20:14 22:21:11 11° 273° (W) 22:22:07 2200.000
VELOX 1 20 Dec 22:21:05 22:25:30 81° 74° (ENE) 22:29:56 145.980
ESTCUBE 1 20 Dec 22:24:30 22:28:41 38° 68° (ENE) 22:32:52 437.505/2401.250
CINEMA 3 20 Dec 22:28:06 22:31:31 24° 267° (W) 22:35:02 145.822/145.860
TISAT 1 20 Dec 22:39:16 22:41:30 14° 60° (ENE) 22:43:43 437.305
BUGSAT 1 20 Dec 22:39:31 22:40:40 11° 89° (E) 22:41:49 437.445
DUCHIFAT 1 20 Dec 22:40:16 22:42:47 15° 90° (E) 22:45:17 145.980
UNISAT 6 20 Dec 22:41:32 22:45:31 27° 94° (E) 22:49:30 437.425
SPROUT 20 Dec 22:43:04 22:45:25 15° 60° (ENE) 22:47:46 437.525
CUSAT 1 20 Dec 22:44:57 22:50:44 24° 276° (W) 22:56:58 437.405
FUNcube-1 20 Dec 22:46:08 22:49:56 33° 264° (W) 22:53:51 145.935
UWE-3 20 Dec 22:47:40 22:51:17 28° 266° (W) 22:54:59 435.000/436.395/437.385
QB50P2 20 Dec 22:53:22 22:56:39 21° 93° (E) 22:59:56 145.880/145.840
50 SAT 20 Dec 22:54:26 22:58:22 52° 260° (W) 23:02:21 437.505
DELFI C3 20 Dec 22:54:58 22:57:27 15° 270° (W) 22:59:56 145.870
PCSat 20 Dec 22:57:48 23:03:14 67° 54° (NE) 23:08:38 145.827
YUBILEINY 20 Dec 22:58:17 23:04:30 22° 77° (ENE) 23:10:42 435.215
RS-15 20 Dec 23:00:44 23:10:28 36° 253° (WSW) 23:20:35 29.354- 29.394
BEESAT 3 20 Dec 23:00:44 23:04:40 40° 241° (WSW) 23:08:32 437.485
POLYITAN 1 20 Dec 23:02:02 23:05:39 26° 95° (E) 23:09:15 437.675
NANOSAT C BR1 20 Dec 23:04:04 23:07:41 27° 95° (E) 23:11:18 145.865
DX 1 20 Dec 23:04:19 23:06:39 14° 270° (W) 23:09:00 434.975-435.025
AISAT 20 Dec 23:04:53 23:08:58 36° 262° (W) 23:13:05 437.250
AIST 2 20 Dec 23:08:25 23:12:45 77° 235° (SW) 23:16:59 435.215
CUBEBUG 1 20 Dec 23:09:37 23:14:00 83° 256° (WSW) 23:18:23 437.445
ANTELSAT 20 Dec 23:13:05 23:17:42 53° 100° (E) 23:22:19 437.575/2403.000
SO-50 20 Dec 23:13:50 23:17:58 32° 320° (NW) 23:22:14 436.795
QB50P1 20 Dec 23:18:16 23:22:15 37° 98° (E) 23:26:13 145.935-145.965
HUMSAT D 20 Dec 23:18:59 23:22:25 25° 266° (W) 23:25:54 437.325/437.525
SWISSCUBE 20 Dec 23:32:23 23:33:52 11° 55° (NE) 23:35:22 437.505
ITUPSAT 1 20 Dec 23:33:30 23:34:29 11° 54° (NE) 23:35:29 437.325
DANDE 20 Dec 23:40:29 23:42:43 11° 283° (WNW) 23:45:02 436.750
BEESAT 2 20 Dec 23:41:31 23:44:32 19° 247° (WSW) 23:47:30 435.950
POPSAT HIP 1 20 Dec 23:46:50 23:51:06 75° 103° (ESE) 23:55:22 437.405
TIGRISAT 20 Dec 23:48:27 23:53:09 74° 286° (WNW) 23:57:51 435.000
BEESAT 20 Dec 23:55:31 23:58:34 17° 59° (ENE) 00:01:36 436.000
VELOX 1 21 Dec 00:01:12 00:02:40 11° 272° (W) 00:04:07 145.980
ESTCUBE 1 21 Dec 00:01:53 00:05:39 25° 266° (W) 00:09:27 437.505/2401.250
BUGSAT 1 21 Dec 00:12:36 00:16:39 72° 286° (WNW) 00:20:43 437.445
TISAT 1 21 Dec 00:12:38 00:16:48 68° 258° (WSW) 00:21:01 437.305
DUCHIFAT 1 21 Dec 00:14:49 00:19:00 57° 288° (WNW) 00:23:10 145.980
SPROUT 21 Dec 00:16:44 00:20:59 68° 258° (WSW) 00:25:16 437.525
UNISAT 6 21 Dec 00:18:02 00:22:24 39° 291° (WNW) 00:26:47 437.425
O/OREOS (USA 219) 21 Dec 00:27:42 00:30:58 20° 102° (ESE) 00:34:16 437.305
QB50P2 21 Dec 00:28:43 00:32:44 40° 290° (WNW) 00:36:44 145.880/145.840
POLYITAN 1 21 Dec 00:37:46 00:41:38 33° 292° (WNW) 00:45:30 437.675
AUBIESAT-1 21 Dec 00:38:11 00:42:21 29° 59° (ENE) 00:46:30 437.475
NANOSAT C BR1 21 Dec 00:39:47 00:43:35 32° 292° (WNW) 00:47:23 145.865
PCSat 21 Dec 00:42:09 00:46:08 21° 253° (WSW) 00:50:06 145.827
ANTELSAT 21 Dec 00:50:38 00:54:09 21° 297° (WNW) 00:57:41 437.575/2403.000
YUBILEINY 21 Dec 00:51:24 01:00:10 86° 279° (W) 01:08:57 435.215
QB50P1 21 Dec 00:54:33 00:57:58 24° 295° (WNW) 01:01:23 145.935-145.965
KKS-1 21 Dec 00:55:36 00:57:43 13° 58° (ENE) 00:59:50 437.445
SO-50 21 Dec 00:58:26 01:00:01 11° 343° (NNW) 01:01:37 436.795
M-CUBED/EXP-1 PRIME 21 Dec 01:03:21 01:08:03 50° 65° (ENE) 01:12:48 437.505
SWISSCUBE 21 Dec 01:06:07 01:10:54 74° 73° (ENE) 01:15:42 437.505
ITUPSAT 1 21 Dec 01:06:43 01:11:30 69° 73° (ENE) 01:16:17 437.325
POPSAT HIP 1 21 Dec 01:24:21 01:26:27 14° 301° (WNW) 01:28:33 437.405
TIGRISAT 21 Dec 01:27:48 01:29:05 11° 304° (NW) 01:30:22 435.000
BEESAT 21 Dec 01:31:05 01:35:52 71° 257° (WSW) 01:40:41 436.000
